This is the latest recevied weather packets stored in our database for station/object KQ4OSL. If no packets are shown the sender has not sent any weather packets the latest 10 day(s).
| Time | Temp. | Humidity | Pressure | Rain* | Wind** | Luminosity | Snow |
|---|---|---|---|---|---|---|---|
| 1777941742 | 17.22° C | 67% | 1016 hPa | 0 mm | - | 0 W/m² | - |
| 1777941439 | 17.78° C | 66% | 1015.9 hPa | 0 mm | - | 0 W/m² | - |
| 1777941137 | 17.78° C | 67% | 1015.9 hPa | 0 mm | - | 1 W/m² | - |
| 1777940833 | 18.33° C | 63% | 1015.8 hPa | 0 mm | - | 2 W/m² | - |
| 1777940531 | 18.33° C | 62% | 1015.9 hPa | 0 mm | - | 3 W/m² | - |
| 1777940228 | 18.89° C | 59% | 1015.6 hPa | 0 mm | - | 5 W/m² | - |
| 1777939925 | 19.44° C | 59% | 1015.8 hPa | 0 mm | - | 7 W/m² | - |
| 1777939622 | 19.44° C | 58% | 1015.8 hPa | 0 mm | - | 9 W/m² | - |
| 1777939320 | 20° C | 57% | 1015.9 hPa | 0 mm | - | 11 W/m² | - |
| 1777939016 | 20.56° C | 55% | 1016 hPa | 0 mm | - | 13 W/m² | - |
| 1777938712 | 20.56° C | 53% | 1016 hPa | 0 mm | - | 15 W/m² | - |
| 1777938410 | 21.11° C | 52% | 1016.1 hPa | 0 mm | - | 17 W/m² | - |
| 1777938107 | 21.67° C | 50% | 1015.8 hPa | 0 mm | - | 19 W/m² | - |
| 1777937803 | 21.67° C | 47% | 1015.8 hPa | 0 mm | - | 20 W/m² | - |
| 1777937499 | 22.22° C | 46% | 1016 hPa | 0 mm | - | 21 W/m² | - |
| 1777937197 | 22.22° C | 46% | 1016 hPa | 0 mm | - | 23 W/m² | - |
| 1777936893 | 22.78° C | 45% | 1016 hPa | 0 mm | - | 26 W/m² | - |
| 1777936590 | 22.78° C | 45% | 1015.9 hPa | 0 mm | - | 29 W/m² | - |
| 1777936286 | 22.78° C | 44% | 1015.9 hPa | 0 mm | - | 34 W/m² | - |
| 1777935982 | 23.33° C | 42% | 1015.9 hPa | 0 mm | - | 39 W/m² | - |
| 1777935682 | 23.33° C | 42% | 1015.9 hPa | 0 mm | - | 47 W/m² | - |
| 1777935379 | 23.33° C | 42% | 1016 hPa | 0 mm | - | 41 W/m² | - |
| 1777934071 | 23.89° C | 41% | 1016.2 hPa | 0 mm | - | 89 W/m² | - |
| 1777933767 | 23.89° C | 41% | 1016.2 hPa | 0 mm | - | 89 W/m² | - |
| 1777933465 | 23.89° C | 41% | 1016.2 hPa | 0 mm | - | 89 W/m² | - |
* Rain latest hour (hover to see other rain measurements)
** Current wind speed in m/s (hover to see current wind gust speed)